Overview Statistics Trail Chart Weather Telemetry Raw packets
 

This is the latest recevied weather packets stored in our database for station/object N5CSU. If no packets are shown the sender has not sent any weather packets the latest 10 day(s).

<< 90 91 92 93 94 95 96 >>
Time Temp. Humidity Pressure Rain* Wind** Luminosity Snow
1787951832 38.33° C 33% 1014.9 hPa 0 mm - 19 W/m² -
1787951528 38.33° C 33% 1015.1 hPa 0 mm - 17 W/m² -
1787951223 37.78° C 34% 1015.2 hPa 0 mm - 17 W/m² -
1787950919 38.33° C 33% 1015.4 hPa 0 mm - 18 W/m² -
1787950614 38.33° C 34% 1015.3 hPa 0 mm - 18 W/m² -
1787950310 38.33° C 35% 1015.5 hPa 0 mm - 30 W/m² -
1787950006 38.33° C 35% 1015.5 hPa 0 mm - 25 W/m² -
1787949702 38.33° C 36% 1015.5 hPa 0 mm - 25 W/m² -
1787949401 38.33° C 34% 1015.7 hPa 0 mm - 24 W/m² -
1787949096 38.33° C 35% 1015.9 hPa 0 mm - 34 W/m² -
1787948792 37.78° C 36% 1016 hPa 0 mm - 23 W/m² -
1787948492 37.78° C 35% 1016 hPa 0 mm - 23 W/m² -
1787948188 37.78° C 35% 1016.3 hPa 0 mm - 17 W/m² -
1787947886 37.78° C 38% 1016.1 hPa 0 mm - 46 W/m² -
1787947581 37.78° C 38% 1016.1 hPa 0 mm - 60 W/m² -
1787947274 37.22° C 37% 1016.3 hPa 0 mm - 22 W/m² -
1787946969 36.67° C 39% 1016.5 hPa 0 mm - 22 W/m² -
1787946667 37.22° C 38% 1016.7 hPa 0 mm - 15 W/m² -
1787946361 37.78° C 38% 1016.5 hPa 0 mm - 15 W/m² -
1787946056 38.33° C 37% 1016.8 hPa 0 mm - 20 W/m² -
1787945756 37.78° C 36% 1016.8 hPa 0 mm - 133 W/m² -
1787945451 37.78° C 36% 1016.9 hPa 0 mm - 75 W/m² -
1787945147 37.78° C 37% 1017 hPa 0 mm - 183 W/m² -
1787944844 37.78° C 38% 1017 hPa 0 mm - 184 W/m² -
1787944540 38.33° C 37% 1016.9 hPa 0 mm - 26 W/m² -

* Rain latest hour (hover to see other rain measurements)
** Current wind speed in m/s (hover to see current wind gust speed)